Lid_Strength_Index
-0 -0 -1 -1 -1 -1 -0 -0 -0 0 0 1 1 2 2 2 2 4 3 2 0 -0 -0 0 1 1 2 2 3 4 4 5 5 5 5 5 5 6 6 6 6 5 5
-1 -0 -0 -0 -0 -1 -0 0 0 1 2 3 5 5 5 5 5 5 5 3 1 1 1 1 1 1 2 3 4 4 5 5 6 6 6 6 6 6 6 6 6 6 6
0 -1 -0 0 2 1 0 1 1 2 3 5 7 7 7 7 7 7 7 7 5 3 2 2 3 3 4 4 4 5 6 7 6 7 7 7 6 6 6 6 6 6 6
0 0 0 1 3 3 2 2 3 4 4 6 8 9 9 8 8 8 9 9 8 7 5 5 5 5 5 5 6 6 6 6 7 7 7 7 7 7 7 7 7 7 6
1 1 0 2 4 4 4 4 5 6 8 9 11 11 11 10 10 10 10 10 10 10 9 8 7 7 7 7 6 6 7 7 8 8 8 8 8 7 7 7 7 7 7
1 1 0 2 3 6 5 5 6 7 8 9 12 13 14 14 13 13 12 12 12 12 12 13 12 10 8 8 8 8 8 8 8 8 8 8 8 8 7 7 7 7 6
2 1 1 2 3 6 6 6 8 10 12 13 14 15 15 15 15 14 13 14 15 15 15 15 14 13 11 9 9 9 9 8 9 9 9 9 8 8 8 7 7 7 7
1 2 1 2 3 5 7 7 9 11 12 12 13 14 17 16 15 15 15 16 16 15 15 15 15 14 13 12 11 10 10 9 9 9 9 9 9 8 8 7 7 7 7
2 1 2 3 3 5 7 8 9 10 13 12 11 12 16 16 16 16 16 16 16 16 16 16 15 15 14 13 13 12 12 11 11 10 10 9 9 8 8 8 8 7 6
2 2 3 3 4 6 8 8 9 9 11 13 13 12 11 14 15 18 16 16 16 17 16 15 15 15 15 14 14 14 13 13 12 11 10 10 10 9 9 8 7 6 5
3 3 3 4 5 7 7 8 9 10 10 11 12 12 13 13 13 15 18 18 16 16 15 15 15 15 15 14 15 15 14 13 12 12 12 11 10 9 8 7 7 6 6
3 3 5 5 6 7 8 8 9 9 9 10 11 12 13 13 14 14 16 17 17 16 15 16 16 15 15 15 15 16 15 14 13 13 11 11 9 9 8 8 7 7 6
7 6 5 6 6 7 8 8 9 10 10 11 11 12 12 13 12 14 14 16 16 17 17 16 15 15 15 15 15 16 16 15 13 12 11 11 10 10 9 9 8 8 7
7 7 6 6 6 8 8 9 10 10 11 12 13 13 14 14 14 14 14 16 17 17 17 17 16 16 15 14 15 17 15 14 13 12 12 11 11 10 10 9 9 8 8
8 9 8 8 8 9 9 10 11 13 13 14 15 15 16 16 16 16 15 14 13 16 17 17 17 15 14 15 15 13 13 14 14 13 12 12 11 11 10 10 10 9 8
12 12 13 14 13 13 12 13 14 15 16 16 16 17 17 17 17 16 15 15 15 15 17 16 16 15 15 15 14 13 14 15 15 14 13 13 12 12 12 11 11 10 9
13 14 15 15 15 16 16 16 16 17 17 17 17 18 18 18 17 17 17 16 16 15 17 17 15 15 14 14 14 14 14 15 15 15 14 13 13 13 12 12 11 11 11
15 15 16 16 16 16 15 16 16 17 18 19 19 19 19 18 18 18 17 17 17 16 16 18 16 15 14 15 15 16 16 16 16 16 14 14 14 13 13 13 12 12 12
16 15 15 16 16 17 17 17 17 18 19 19 19 19 19 18 18 18 17 17 17 17 16 15 16 15 15 15 16 16 16 16 16 16 15 15 14 14 14 13 13 13 13
15 15 14 16 15 17 17 18 19 19 19 19 18 18 18 18 18 17 17 17 17 17 16 16 17 17 16 16 17 18 18 17 17 17 16 16 15 15 14 14 14 14 14
16 16 17 17 17 18 18 18 18 19 19 19 19 18 18 18 17 17 17 17 17 16 16 17 18 17 17 18 19 19 19 18 18 17 18 17 17 17 17 16 16 15 13
17 18 18 17 17 17 16 17 18 19 19 19 19 18 17 17 16 16 15 15 15 17 18 18 18 19 19 19 19 19 19 20 21 17 19 19 18 18 17 17 15 13 13
18 18 18 18 18 18 17 17 17 18 19 19 19 19 18 16 16 16 16 15 15 15 16 17 19 19 19 19 19 19 20 20 21 19 20 21 18 18 17 17 15 13 12
18 18 18 17 18 17 16 17 17 18 18 19 18 18 18 18 17 17 16 17 17 17 17 17 17 18 18 17 18 19 20 20 20 19 19 23 18 19 17 17 15 14 13
17 17 17 17 17 18 16 16 17 18 18 18 18 17 16 16 15 15 16 17 18 18 17 17 17 17 17 17 18 19 20 21 22 21 19 21 20 19 19 18 16 15 14
17 17 17 17 17 17 16 16 17 18 19 18 17 17 15 15 14 14 16 18 19 19 18 18 19 19 20 20 20 20 21 23 22 23 20 23 20 21 22 18 18 17 17